Change the Weather History Date:

Tuesday, April 9, 2013

  Actual Average Record
Temperature  
Mean Temperature 72 °F -  
Max Temperature 86 °F 62 °F 87 °F (2001)
Min Temperature 59 °F 42 °F 28 °F (2007)
Cooling Degree Days 6    
Growing Degree Days 22 (Base 50)    
Moisture  
Dew Point 51 °F    
Average Humidity 53    
Maximum Humidity 72    
Minimum Humidity 27    
Precipitation  
Precipitation 0.00 in - - ()
Sea Level Pressure  
Sea Level Pressure 30.03 in    
Wind  
Wind Speed 8 mph (SSW)    
Max Wind Speed 13 mph    
Max Gust Speed 18 mph    
Visibility 10 miles    
Events      
Averages and records for this station are not official NWS values.
T = Trace of Precipitation, MM = Missing Value Source: NWS Daily Summary

Daily Weather History Graph

Daily Weather History Graph

Search for Another Location

Airport or City:

Trip Planner

Search our weather history database for the weather conditions in past years. The results will help you decide how hot, cold, wet, or windy it might be!

Date:

Astronomy

Apr. 09, 2013 Rise Set
Actual Time 6:41 AM EDT 7:40 PM EDT
Civil Twilight 6:14 AM EDT 8:07 PM EDT
Nautical Twilight 5:42 AM EDT 8:39 PM EDT
Astronomical Twilight 5:09 AM EDT 9:13 PM EDT
Moon 6:02 AM EDT (4/9) 7:13 PM EDT (4/9)
Length of Visible Light 13h 52m
Length of Day
12h 58m
Waning Crescent, 1% of the Moon is Illuminated
Apr 9
Waning Crescent
Apr 10
New
Apr 18
First Quarter
Apr 25
Full
May 2
Last Quarter

Hourly Weather History & Observations

Time (EDT) Temp. Dew Point Humidity Pressure Visibility Wind Dir Wind Speed Gust Speed Precip Events Conditions
12:56 AM 69.1 °F 48.9 °F 49% 30.01 in 10.0 mi SW 6.9 mph - N/A   Clear
1:56 AM 73.0 °F 48.0 °F 41% 30.01 in 10.0 mi WSW 10.4 mph 18.4 mph N/A   Mostly Cloudy
2:56 AM 72.0 °F 48.0 °F 43% 30.00 in 10.0 mi WSW 9.2 mph - N/A   Clear
3:56 AM 69.1 °F 48.9 °F 49% 30.01 in 10.0 mi SW 5.8 mph - N/A   Clear
4:56 AM 59.0 °F 50.0 °F 72% 30.04 in 10.0 mi South 6.9 mph - N/A   Clear
5:56 AM 59.0 °F 50.0 °F 72% 30.05 in 10.0 mi South 5.8 mph - N/A   Clear
6:56 AM 60.1 °F 50.0 °F 69% 30.08 in 10.0 mi SSW 6.9 mph - N/A   Clear
7:56 AM 60.1 °F 51.1 °F 72% 30.10 in 10.0 mi SSW 4.6 mph - N/A   Mostly Cloudy
8:56 AM 60.1 °F 51.1 °F 72% 30.10 in 10.0 mi South 8.1 mph - N/A   Mostly Cloudy
9:56 AM 63.0 °F 52.0 °F 67% 30.11 in 10.0 mi SSW 4.6 mph - N/A   Mostly Cloudy
10:56 AM 66.0 °F 52.0 °F 60% 30.10 in 10.0 mi SSW 5.8 mph - N/A   Mostly Cloudy
11:56 AM 70.0 °F 51.1 °F 51% 30.10 in 10.0 mi SSW 5.8 mph - N/A   Scattered Clouds
12:56 PM 71.1 °F 53.1 °F 53% 30.07 in 10.0 mi SSW 9.2 mph - N/A   Scattered Clouds
1:56 PM 78.1 °F 51.1 °F 39% 30.04 in 10.0 mi South 8.1 mph - N/A   Scattered Clouds
2:56 PM 75.9 °F 52.0 °F 43% 30.02 in 10.0 mi South 11.5 mph - N/A   Scattered Clouds
3:56 PM 73.9 °F 52.0 °F 46% 29.99 in 10.0 mi South 11.5 mph - N/A   Scattered Clouds
4:56 PM 84.9 °F 46.9 °F 27% 29.98 in 10.0 mi SSW 12.7 mph - N/A   Scattered Clouds
5:56 PM 81.0 °F 50.0 °F 34% 29.97 in 10.0 mi SW 9.2 mph - N/A   Scattered Clouds
6:56 PM 78.1 °F 50.0 °F 37% 29.97 in 10.0 mi SW 10.4 mph - N/A   Scattered Clouds
7:56 PM 75.0 °F 51.1 °F 43% 29.97 in 10.0 mi SSW 11.5 mph - N/A   Clear
8:56 PM 66.0 °F 52.0 °F 60% 29.99 in 10.0 mi SSW 8.1 mph - N/A   Clear
9:56 PM 64.0 °F 52.0 °F 65% 29.98 in 10.0 mi SSW 10.4 mph - N/A   Clear
10:56 PM 62.1 °F 52.0 °F 70% 29.97 in 10.0 mi SSW 10.4 mph - N/A   Clear
11:56 PM 75.9 °F 50.0 °F 40% 29.96 in 10.0 mi WSW 10.4 mph 17.3 mph N/A   Clear